User: anonymous   Login
Location: Pulvis Stellarum Observatory
(41.6962°N, 71.4263°W)
Time: 18:06:46
(UTC-05:00)
Language:

Cosmos 1758 - Orbit

View from above orbital plane
View from above orbital plane
View from above satellite
View from above satellite

Ground track
Ground track

The orbit data is extracted from the following two-line orbital elements,

1 16791U 86046A   15061.51715435  .00003942  00000-0  29377-3 0  9991
2 16791 082.4716 127.3760 0018708 060.5035 299.8053 15.02511674559796
Epoch (UTC): 02 March 2015 12:24:42
Eccentricity: 0.0018708
inclination: 82.4716°
perigee height: 546 km
apogee height: 572 km
right ascension of ascending node: 127.3760°
argument of perigee: 60.5035°
revolutions per day: 15.02511674
mean anomaly at epoch: 299.8053°
orbit number at epoch: 55979

The dashed part of the orbit path shows where the satellite is in the earth's shadow,  

DLR